Wetbulb
68.23 69.58 67.63 65.91 65.43 65.43 65.48 65.81 65.65 65.49 65.33 65.20 65.27 65.05 65.07 64.35 64.14 63.89 63.41 63.05 62.69 62.07 61.46 61.38 61.42 61.10 60.63 60.98 62.98 63.05 69.53 70.19
69.26 69.09 68.42 67.08 65.13 63.85 63.88 63.70 63.50 62.84 63.06 63.04 63.41 63.25 62.88 63.08 62.76 62.33 62.07 61.44 60.75 60.09 59.15 58.64 58.87 58.84 58.73 58.64 60.48 62.58 67.77 68.45
67.96 67.34 67.01 65.82 64.67 63.39 62.28 61.73 61.36 60.52 60.46 59.97 62.03 63.85 63.93 63.20 60.28 60.19 59.82 59.44 58.67 57.86 57.13 56.45 56.32 57.39 57.07 57.26 59.21 65.35 66.21 67.11
65.39 65.36 65.24 64.47 62.50 63.20 63.20 61.76 61.77 62.00 61.94 62.39 62.49 62.71 62.35 61.22 59.30 57.70 57.00 56.72 56.18 55.42 55.17 55.48 59.57 60.29 60.72 59.54 61.04 61.43 62.90 64.06
63.51 63.71 64.47 62.95 61.06 61.02 60.57 60.52 61.01 61.47 61.84 61.75 61.71 60.83 60.93 61.34 60.55 60.31 60.60 56.08 59.48 59.14 59.29 58.25 58.04 58.78 58.81 59.31 59.72 60.64 60.95 61.17
62.65 63.09 63.17 62.04 60.72 60.16 59.96 59.56 60.02 60.17 60.78 61.18 60.57 59.84 59.60 59.44 58.80 58.87 58.46 57.71 57.46 57.41 57.03 56.77 56.77 56.39 56.88 57.28 57.83 59.05 60.06 60.36
61.85 62.21 62.05 61.29 60.56 59.87 59.65 59.08 59.28 60.12 59.83 60.10 59.77 58.71 57.64 57.31 56.79 56.50 56.23 56.53 56.09 55.86 55.45 55.12 55.10 55.20 55.79 56.03 57.14 57.96 59.05 60.56
61.80 61.20 61.42 61.11 60.20 60.34 59.67 59.12 59.01 59.10 58.72 58.46 58.54 57.29 56.65 55.46 55.11 55.04 54.75 54.81 54.58 54.68 54.22 54.52 54.58 55.26 55.00 56.48 57.22 58.08 58.71 59.08
61.12 60.83 60.98 60.55 60.34 60.01 59.02 58.33 58.30 57.78 57.50 57.34 56.63 56.45 55.60 55.01 54.10 53.77 53.96 54.94 55.32 55.64 55.63 55.82 55.23 55.12 55.09 56.64 56.83 57.62 57.27 57.64
60.96 59.78 59.90 60.42 60.09 59.32 58.39 57.76 57.57 56.98 56.42 56.02 55.65 55.01 55.08 54.46 53.48 53.43 54.02 54.46 54.77 54.16 53.96 54.68 54.63 55.45 55.65 55.54 55.85 56.53 55.98 55.95
59.95 59.49 59.35 59.71 59.61 58.93 58.18 57.66 56.84 56.35 55.91 55.17 54.70 54.12 54.02 53.73 52.85 52.70 53.40 53.48 53.37 53.20 53.13 53.15 53.69 54.32 54.54 54.77 54.76 54.78 54.32 53.64
59.85 58.59 58.96 59.38 58.90 57.99 57.07 56.24 55.90 55.68 54.90 54.46 53.83 53.24 52.95 52.51 52.07 52.09 52.92 52.78 52.46 52.54 52.57 52.33 52.10 54.04 52.58 53.75 53.93 53.98 53.66 52.76
58.92 57.82 57.96 58.10 56.91 55.66 54.96 54.08 54.33 54.31 53.98 53.56 53.05 52.45 52.23 52.17 51.56 51.20 51.58 50.91 50.70 51.48 52.89 51.00 50.08 52.93 52.93 52.80 53.36 54.36 53.54 52.42
58.77 58.10 57.38 57.67 56.99 56.71 55.90 54.93 54.38 54.06 53.32 52.83 52.29 51.58 51.42 50.97 50.91 50.47 50.60 50.27 50.10 50.19 50.41 51.97 49.61 49.94 50.24 50.35 48.53 50.55 52.49 51.85
59.00 57.85 57.16 57.17 57.32 56.33 55.56 54.78 53.75 51.88 51.42 50.92 50.59 50.37 50.14 49.86 49.58 49.84 49.63 49.91 48.72 48.84 48.85 48.33 48.60 48.16 48.74 48.25 47.56 47.29 47.15 50.65
59.85 57.89 56.80 56.93 56.96 55.33 53.85 51.83 50.59 51.67 51.15 50.70 49.84 49.50 49.08 48.80 48.62 48.72 48.66 48.79 47.79 47.28 47.70 47.61 48.31 46.04 47.96 46.53 47.32 45.99 44.05 44.84
59.38 57.15 56.07 56.31 55.91 55.14 53.53 52.90 52.92 52.14 50.72 49.04 48.60 48.26 47.81 47.61 47.77 47.85 47.46 47.23 46.69 46.59 45.22 44.28 44.56 44.44 43.13 43.09 43.10 44.33 41.80 40.60
58.66 57.02 55.19 55.52 54.61 54.68 53.95 52.85 51.30 49.44 48.62 47.44 47.13 46.88 46.57 46.40 46.16 46.33 46.49 45.71 43.79 42.33 41.54 41.59 42.27 42.31 42.03 41.48 40.77 40.59 38.80 39.19
55.69 55.53 52.89 53.61 53.32 53.87 53.00 51.50 49.22 47.35 46.59 47.17 45.60 45.14 44.77 44.47 44.50 44.09 44.52 43.06 42.01 40.76 39.81 40.13 40.35 41.05 41.07 40.66 41.15 40.05 40.09 39.94
53.40 51.60 50.72 50.82 51.03 50.75 50.29 48.77 47.03 46.37 47.33 44.69 44.37 44.30 43.92 43.57 43.09 42.95 41.46 40.30 38.86 38.60 38.70 39.80 40.45 39.97 39.49 39.83 40.11 40.46 40.03 39.19
MSLP
1013.24 1013.45 1014.09 1014.43 1014.72 1014.94 1015.09 1015.20 1015.53 1015.86 1016.06 1016.22 1016.19 1016.31 1016.57 1016.69 1016.66 1016.62 1016.62 1016.57 1016.55 1016.45 1016.44 1016.36 1016.40 1016.42 1016.25 1016.09 1015.78 1015.41 1014.41 1014.26
1012.70 1013.17 1013.70 1014.27 1014.77 1015.17 1015.31 1015.53 1015.87 1016.16 1016.37 1016.55 1016.71 1016.57 1016.59 1016.83 1016.94 1017.00 1016.96 1016.91 1017.02 1016.85 1016.75 1016.72 1016.59 1016.48 1016.46 1016.32 1015.89 1015.29 1014.65 1014.30
1012.84 1013.15 1013.59 1014.13 1014.62 1015.35 1015.51 1015.84 1016.12 1016.34 1016.67 1016.78 1016.54 1015.94 1016.09 1016.59 1017.41 1017.42 1017.33 1017.15 1017.23 1017.12 1016.97 1016.83 1016.60 1016.35 1016.30 1016.15 1015.76 1014.75 1014.70 1014.64
1013.00 1013.24 1013.56 1013.96 1014.29 1014.95 1015.20 1015.66 1015.52 1015.72 1015.76 1016.11 1016.05 1016.32 1016.35 1016.45 1017.27 1017.65 1017.51 1017.34 1017.24 1017.22 1016.85 1016.56 1016.00 1015.54 1015.45 1015.68 1015.19 1015.49 1014.87 1015.01
1012.65 1013.16 1013.60 1013.82 1014.27 1014.55 1014.85 1015.28 1015.63 1015.91 1016.07 1016.03 1016.22 1016.44 1016.50 1016.52 1016.51 1016.45 1016.65 1017.08 1016.43 1016.46 1016.23 1016.06 1016.26 1015.97 1015.89 1016.00 1015.81 1015.45 1015.33 1015.22
1012.18 1012.81 1013.51 1013.70 1014.01 1014.07 1014.55 1014.86 1015.38 1015.59 1016.12 1016.34 1016.40 1016.18 1016.59 1016.52 1016.56 1016.87 1016.73 1016.81 1016.86 1016.59 1016.45 1016.68 1016.56 1016.52 1016.34 1016.24 1016.24 1015.83 1015.60 1015.56
1011.84 1012.46 1013.18 1013.67 1013.95 1014.13 1014.37 1014.98 1015.28 1015.81 1016.16 1016.52 1016.30 1016.50 1016.83 1016.99 1017.31 1017.11 1017.13 1017.03 1016.90 1016.91 1016.81 1016.79 1016.75 1016.89 1016.82 1016.45 1016.33 1016.26 1016.15 1015.85
1011.56 1012.22 1012.81 1013.44 1013.74 1014.19 1014.65 1015.04 1015.78 1015.90 1016.26 1016.67 1016.77 1016.84 1017.23 1016.97 1017.22 1017.48 1017.47 1017.51 1017.51 1017.33 1017.28 1016.89 1016.89 1016.90 1017.03 1016.95 1016.66 1016.48 1016.58 1016.40
1011.32 1011.99 1012.63 1013.23 1013.82 1014.29 1014.60 1015.13 1015.51 1015.89 1016.43 1016.95 1017.04 1016.93 1017.22 1017.48 1017.55 1017.58 1017.75 1017.99 1017.93 1017.56 1017.22 1017.12 1016.87 1016.85 1017.07 1016.95 1016.87 1016.98 1017.06 1017.24
1010.80 1011.54 1012.42 1013.04 1013.53 1014.04 1014.34 1015.04 1015.35 1015.93 1016.55 1017.06 1017.35 1017.41 1017.30 1017.12 1017.25 1017.80 1018.07 1018.00 1017.83 1017.80 1017.57 1017.14 1017.05 1016.97 1016.98 1016.95 1016.98 1017.10 1017.34 1017.59
1010.29 1011.14 1011.98 1012.71 1013.44 1013.77 1014.44 1015.16 1015.40 1015.99 1016.57 1016.98 1017.55 1017.57 1017.78 1017.70 1017.78 1018.09 1017.93 1017.92 1018.13 1018.09 1018.00 1017.80 1017.35 1017.08 1017.11 1017.22 1017.33 1017.36 1017.59 1017.86
1010.06 1010.91 1011.60 1012.34 1013.10 1013.82 1014.42 1014.85 1015.38 1015.98 1016.47 1017.14 1017.85 1017.90 1018.07 1017.88 1018.27 1018.60 1018.20 1018.09 1018.09 1018.22 1018.16 1018.03 1017.73 1017.54 1017.30 1017.56 1017.77 1017.91 1017.88 1018.17
1009.43 1010.17 1011.12 1011.92 1012.50 1013.01 1013.75 1014.28 1015.18 1015.77 1016.53 1017.49 1017.84 1018.19 1018.44 1018.44 1018.49 1018.66 1018.59 1018.54 1018.64 1018.63 1018.40 1018.24 1018.30 1018.03 1017.16 1017.37 1017.82 1018.17 1018.25 1018.25
1008.82 1009.57 1010.66 1011.32 1011.82 1012.54 1013.31 1014.02 1014.95 1015.72 1016.66 1017.45 1017.94 1018.29 1018.45 1018.50 1018.58 1018.56 1018.62 1018.82 1018.94 1018.92 1018.82 1018.24 1018.39 1018.50 1017.64 1017.20 1016.79 1017.44 1017.75 1018.34
1008.09 1008.87 1009.99 1010.63 1011.14 1012.15 1013.14 1014.22 1015.16 1016.10 1016.91 1017.51 1018.11 1018.53 1018.82 1019.01 1019.11 1019.02 1018.99 1018.83 1019.09 1019.20 1019.09 1018.82 1018.41 1019.00 1018.90 1018.01 1017.22 1016.80 1017.72 1018.10
1007.68 1008.49 1009.36 1010.16 1010.99 1011.61 1012.26 1013.21 1014.19 1015.36 1016.43 1017.30 1018.01 1018.72 1019.05 1019.29 1019.46 1019.51 1019.45 1019.22 1019.35 1019.48 1019.56 1019.58 1019.05 1018.95 1019.15 1019.31 1019.45 1019.58 1018.79 1018.13
1007.34 1008.28 1009.05 1009.53 1010.40 1011.18 1012.12 1012.56 1013.47 1015.04 1016.28 1017.32 1018.04 1018.88 1019.35 1019.56 1019.79 1019.93 1020.07 1020.08 1020.13 1020.32 1020.45 1020.17 1020.29 1019.73 1019.87 1020.05 1020.18 1020.20 1020.67 1020.22
1007.18 1007.84 1008.80 1009.56 1010.45 1010.90 1011.58 1011.97 1013.14 1014.62 1016.17 1017.32 1018.23 1018.91 1019.46 1019.94 1020.27 1020.34 1020.70 1020.85 1021.12 1021.18 1021.57 1021.60 1021.08 1021.02 1021.02 1020.87 1020.73 1020.69 1021.14 1021.12
1007.90 1008.30 1009.06 1009.98 1010.61 1011.23 1011.98 1012.93 1014.00 1014.94 1016.35 1017.21 1018.39 1019.13 1019.73 1020.28 1020.66 1021.03 1021.20 1021.59 1021.57 1022.17 1022.08 1022.16 1022.20 1021.62 1021.67 1021.81 1021.71 1021.71 1021.91 1021.92
1008.15 1008.96 1009.71 1010.41 1011.11 1012.02 1013.00 1014.05 1014.91 1015.67 1016.41 1018.09 1018.45 1019.22 1020.27 1020.75 1020.83 1021.40 1022.36 1022.51 1022.33 1022.44 1022.64 1022.35 1022.68 1022.50 1022.60 1022.64 1022.55 1022.66 1022.70 1022.54
Wind_Speed
11 13 13 12 11 11 11 12 13 13 13 13 14 14 13 13 13 12 12 12 12 12 11 11 10 10 9 7 4 4 5 3
12 13 13 11 11 12 13 13 13 14 14 13 13 14 13 10 12 11 11 11 11 11 11 8 8 9 9 8 4 6 3 3
12 12 12 11 11 11 13 14 14 14 11 9 8 6 8 9 11 10 10 11 10 10 9 7 1 6 6 4 10 3 4 4
12 12 12 12 9 10 9 9 7 7 8 7 5 5 6 8 9 9 9 7 7 6 5 1 5 3 1 5 3 5 2 3
14 12 12 11 10 8 6 6 6 6 7 6 7 5 5 3 3 4 3 1 2 1 2 4 5 4 4 4 3 2 3 3
16 15 13 11 8 8 8 7 6 5 6 7 5 4 4 3 3 3 3 3 3 3 4 4 4 5 4 4 4 4 3 3
17 16 14 11 10 8 7 7 6 7 6 6 5 5 5 4 4 4 4 3 4 4 4 5 4 5 5 5 5 5 5 3
18 17 15 13 10 10 8 7 8 6 6 6 7 5 4 5 5 4 4 4 4 4 4 3 4 3 5 5 6 6 7 5
18 17 15 14 13 11 8 8 7 7 7 7 8 7 7 5 5 4 4 4 3 3 3 3 3 3 5 5 5 6 7 7
19 15 17 16 13 11 9 9 8 8 7 7 8 7 7 7 6 4 4 3 3 4 4 3 3 2 3 4 5 6 7 7
20 19 19 17 15 11 10 11 8 7 7 7 8 8 6 5 5 5 4 3 4 4 4 5 3 3 4 5 4 5 6 6
19 17 19 18 13 12 10 9 9 8 7 7 8 7 7 6 6 5 3 3 4 4 4 4 4 3 3 4 4 4 5 5
22 21 21 16 13 13 12 11 10 8 8 10 9 7 7 6 5 5 4 5 5 4 2 5 5 3 3 4 4 4 3 4
23 22 21 17 13 12 11 11 10 9 9 9 9 8 7 6 6 6 5 5 5 5 5 2 5 5 3 3 5 6 4 3
22 22 22 19 17 13 11 10 10 9 9 9 8 8 7 6 6 6 6 5 5 5 5 5 3 5 8 5 3 1 2 4
21 22 22 19 19 16 19 13 13 10 9 8 9 8 8 7 7 6 5 5 6 5 5 5 3 4 3 5 6 5 3 2
19 20 21 21 19 17 15 15 11 11 10 13 11 9 8 8 7 7 6 5 6 6 6 6 4 4 5 4 4 4 5 3
18 21 21 20 20 19 20 18 16 13 13 10 8 7 7 7 7 7 6 6 7 7 6 6 6 5 5 5 4 3 3 3
13 17 18 17 18 17 15 14 14 15 14 10 10 7 6 8 7 6 6 7 8 6 6 6 5 5 5 4 4 4 3 2
14 14 14 14 14 14 11 13 8 10 11 9 7 6 6 8 9 8 8 7 7 6 5 5 6 6 7 6 4 5 4 4
Wind_Direction
153 145 129 106 109 112 110 106 101 99 99 103 101 91 86 86 84 83 77 71 69 68 65 66 63 56 53 43 50 355 312 337
155 149 148 141 136 109 105 103 104 107 109 107 102 104 106 102 111 78 78 71 62 59 55 54 65 58 39 13 323 234 1 310
157 155 149 142 136 119 111 108 112 119 120 124 174 126 123 99 73 83 79 78 66 58 51 38 327 120 73 360 284 20 329 354
164 160 151 151 139 145 134 145 146 146 147 149 137 122 84 96 102 93 85 84 87 71 60 267 275 335 37 218 3 349 309 324
168 164 161 159 146 150 152 148 147 139 141 148 126 133 136 120 127 132 99 64 33 118 74 47 40 11 23 12 10 336 19 47
171 169 167 164 157 165 153 149 147 144 128 135 134 131 114 97 73 76 77 47 25 24 55 41 45 54 55 57 33 18 35 91
176 169 169 163 170 152 147 138 144 127 139 124 120 112 111 97 69 66 46 52 52 39 42 34 36 44 30 43 69 72 74 86
175 174 169 165 167 157 144 137 135 135 126 112 111 113 113 109 104 78 67 41 46 51 35 30 45 42 64 51 57 58 59 62
178 173 167 170 163 153 148 140 140 132 121 124 120 122 110 101 94 85 63 57 39 49 53 57 67 94 77 81 85 72 67 53
177 171 169 170 164 161 149 150 140 136 133 126 118 117 123 129 117 90 55 55 34 38 12 52 64 73 89 87 88 89 79 73
180 173 173 171 163 158 150 144 143 135 136 128 125 118 113 109 102 104 107 92 59 23 46 2 37 74 106 106 93 86 78 71
180 174 172 170 162 156 153 150 143 143 135 122 132 118 123 122 109 101 100 88 77 62 41 63 38 31 97 109 87 83 83 66
185 177 173 170 169 168 163 158 151 141 131 134 131 124 118 118 112 112 92 80 64 45 49 46 47 6 185 146 152 127 72 56
187 183 176 179 175 172 168 155 152 143 140 137 130 130 129 130 132 122 115 111 83 59 30 90 76 34 342 284 184 163 184 84
189 184 180 183 174 162 155 147 138 150 148 143 135 131 124 119 117 113 120 110 90 70 58 31 73 69 36 345 241 40 311 122
191 186 182 181 176 169 168 165 165 164 159 139 137 135 130 123 118 115 108 109 106 93 71 47 31 61 104 59 49 14 349 217
190 189 186 179 177 178 175 170 162 154 148 148 143 138 132 123 119 115 110 99 91 85 79 73 57 68 58 45 49 96 34 317
192 187 190 182 185 181 187 172 157 156 154 152 150 141 134 118 114 103 98 100 92 83 74 63 68 70 76 63 58 38 40 0
202 194 189 186 188 180 181 158 152 150 153 153 148 139 137 122 116 111 108 101 92 83 78 83 69 73 61 72 70 70 56 18
197 193 185 176 170 167 149 140 142 137 146 137 139 133 125 124 112 108 113 104 89 96 103 83 81 69 60 48 55 44 21 14